Location: Clinton NY
(43.0598°N, 75.3602°W)
Time: 23:32:39
(UTC-04:00)

Iridium 11 - Visible Passes

Search period start: 27 June 2017 00:00
Search period end: 07 July 2017 00:00
Orbit: 776 x 779 km, 86.4° (Epoch: 26 June)

Date Brightness Start Highest point End Pass type
(mag) Time Alt. Az. Time Alt. Az. Time Alt. Az.
27 Jun 5.5 23:21:01 38° SSE 23:23:01 73° E 23:28:14 10° N visible
28 Jun 7.9 01:01:42 10° WSW 01:04:20 14° WNW 01:07:00 10° NW visible
28 Jun 6.1 22:47:24 27° SE 22:49:36 40° E 22:54:28 10° NNE visible
29 Jun 7.3 00:27:52 17° WSW 00:30:27 24° WNW 00:34:42 10° NNW visible
29 Jun 6.9 22:13:47 16° ESE 22:16:19 23° E 22:20:19 10° NNE visible
29 Jun 6.4 23:54:15 26° SW 23:56:43 43° W 00:01:42 10° N visible
30 Jun 7.5 21:40:59 10° E 21:43:09 13° ENE 21:45:18 10° NE visible
30 Jun 5.5 23:20:36 32° S 23:23:06 79° W 23:28:21 10° N visible
01 Jul 5.7 22:46:58 28° SSE 22:49:37 58° E 22:54:44 10° N visible
02 Jul 7.7 00:27:25 10° WSW 00:30:45 17° WNW 00:34:12 10° NNW visible
02 Jul 6.4 22:13:18 18° SE 22:16:15 32° E 22:20:50 10° NNE visible
02 Jul 7.0 23:53:45 17° SW 23:56:55 30° W 00:01:32 10° NNW visible
03 Jul 7.1 21:39:38 10° ESE 21:43:00 18° ENE 21:46:28 10° NE visible
03 Jul 6.1 23:20:05 23° SSW 23:23:14 55° W 23:28:22 10° N visible
04 Jul 5.5 22:46:24 23° S 22:49:40 83° E 22:54:55 10° N visible
05 Jul 8.0 00:29:02 10° W 00:31:06 12° WNW 00:33:09 10° NW visible
05 Jul 5.9 22:12:42 18° SSE 22:16:14 45° E 22:21:12 10° NNE visible
05 Jul 7.5 23:53:12 10° SW 23:57:11 22° WNW 00:01:11 10° NNW visible
06 Jul 6.7 21:38:58 11° SE 21:42:55 26° E 21:47:08 10° NNE visible
06 Jul 6.7 23:19:24 14° SW 23:23:24 38° W 23:28:16 10° NNW visible
